Location: Newark
(47.5500°N, 8.6167°E)
Time: 01:07:56
(UTC+00:00)

Envisat - Pass Details

Date: 31 January 2020
Orbit: 764 x 766 km, 98.1° (Epoch: 27 February)

Event Time Altitude Azimuth Distance (km) Brightness Sun altitude
Rises 05:47:32 0° 17° (NNE) 3,244 6.3 -11.4°
Reaches altitude 10° 05:49:55 10° 23° (NNE) 2,313 5.6 -11.0°
Maximum altitude 05:54:53 51° 99° (E) 958 4.0 -10.2°
Drops below altitude 10° 05:59:48 10° 176° (S) 2,295 5.7 -9.4°
Sets 06:02:10 0° 181° (S) 3,216 6.4 -9.0°
